Location: Lake Arresoe
(56.0000°N, 12.5000°E)
Time: 12:54:23
(UTC+02:00)

CZ-3 Stage 3 - Pass Details

Date: 15 August 2020
Orbit: 426 x 34763 km, 31.1° (Epoch: 22 September)

Event Time Altitude Azimuth Distance (km) Brightness Sun altitude
Rises 04:12:13 0° 188° (S) 10,811 7.9 -10.8°
Reaches altitude 10° 04:19:48 10° 180° (S) 11,870 8.1 -10.1°
Maximum altitude 09:52:20 61° 181° (S) 34,267 11.5 32.9°
Drops below altitude 10° 13:26:59 10° 149° (SSE) 9,880 8.9 47.7°
Sets 13:32:02 0° 143° (SE) 9,444 8.5 47.7°
